Find OTC-P1-1

NORAD ID: 63351 Int'l Des: 2025-061 Owner: ORORA Country: D operational
LEOCIRCULARRETROGRADESSO

当前视图

正在加载3D地球...

About OTC-P1-1

OTC-P1-1 (NORAD 63351) is a satellite launched Mar 26, 2025 by ORORA of D. It operates in LEO, CIRCULAR, RETROGRADE, SSO orbit with a mass of 15.00 kg.

即将过境

Passes for default location (London). Set your location on the main map for personalized predictions.

高度历史

Loading altitude history...

两行轨道根数

1 63351U 25061A 26194.92987453 .00001925 00000-0 11037-3 0 9993
2 63351 97.5650 170.1016 0019107 167.3308 192.8407 15.13641863 71630
Epoch: Jul 13, 2026 • Age: 16 hours

当前状态

高度 536.9 km
远地点 / 近地点 N/A
速度 7.60 km/s
星下点 78.48°N, 20.21°W
发射日期 Mar 26, 2025
运行时间 1.3 years
类型 other

技术详情

分类 Payload
质量 15.00 kg
干质量 15.00 kg
总质量 15.00 kg
长度 0.40 m
直径 0.20 m
跨度 0.40 m
形状 Box+2 pan
制造商 SPIREG
平台类型 Cubesat 8U
阶段状态 In Orbit
所有者/国家 ORORA/D

Most Searched